Lid_Strength_Index
0 1 1 1 1 2 2 2 1 2 2 2 2 2 3 3 3 4 4 5 3 4 4 4 3 2 3 8 8 6 3 4 5 4 5 6 7 7 8 8 9 10 10 9 10 10 11
-0 1 1 1 2 2 2 3 2 2 2 2 2 3 3 3 4 4 4 4 4 4 3 4 3 3 6 10 6 6 6 5 5 5 6 5 6 6 8 9 10 10 9 10 10 10 11
0 0 1 1 2 2 2 3 3 2 2 2 2 3 3 3 4 4 4 5 4 5 4 3 3 5 9 9 7 6 6 6 5 5 6 5 6 6 8 10 9 10 11 11 11 11 11
0 0 0 1 1 2 2 2 3 3 2 3 3 3 3 4 4 4 4 5 5 5 5 4 3 6 10 7 6 7 6 7 6 5 6 5 6 7 8 9 10 12 12 15 12 11 12
0 0 0 1 1 1 2 2 2 3 3 3 3 4 4 4 4 4 5 5 6 5 4 4 7 8 10 7 8 7 7 8 7 7 7 6 6 9 9 11 13 13 15 14 14 11 12
0 0 0 0 0 1 1 2 3 3 4 4 3 4 4 4 4 5 5 5 5 5 6 8 9 11 11 11 8 7 7 7 8 8 8 8 9 12 12 13 16 14 15 14 15 13 13
3 1 1 1 1 1 1 2 3 3 3 4 4 4 4 4 4 5 6 7 10 10 10 12 12 12 11 10 8 9 7 8 8 9 12 10 13 15 12 12 11 13 14 14 14 14 15
4 4 3 2 1 1 1 1 2 3 3 4 4 4 4 4 5 5 7 10 10 8 13 10 10 11 10 10 12 10 8 11 10 13 11 13 15 11 11 11 12 14 15 15 15 14 16
5 5 4 3 3 2 1 1 2 2 3 4 5 5 5 5 5 6 9 9 8 8 11 12 11 11 11 11 12 12 10 11 12 13 12 14 13 11 12 14 14 15 15 16 16 15 16
6 5 4 4 5 4 4 2 2 2 3 4 5 5 6 6 8 9 10 7 7 6 14 13 13 12 11 10 13 9 10 12 13 13 13 13 14 14 15 14 14 16 14 15 15 17 20
4 4 5 5 5 5 4 4 2 2 3 4 5 5 5 6 9 11 10 7 6 7 20 13 14 10 11 13 13 13 10 12 14 14 13 15 16 16 15 14 13 15 14 15 16 18 19
5 6 6 5 6 5 5 4 4 3 3 4 5 5 5 7 9 10 8 8 8 15 22 18 15 15 15 13 14 13 13 11 13 15 14 16 14 14 15 14 14 14 15 16 17 18 23
5 5 6 6 6 6 6 6 5 5 2 4 4 5 6 8 11 9 8 9 18 20 15 19 18 15 16 16 15 15 16 16 17 20 20 17 17 16 14 16 15 15 17 21 22 24 23
5 6 7 7 8 7 7 7 6 6 5 3 4 5 6 8 9 9 10 15 21 18 18 16 16 16 17 16 16 16 17 18 16 16 18 20 21 17 15 16 18 18 16 19 24 22 21
5 6 7 7 7 7 7 7 7 6 6 4 4 6 8 11 9 9 14 21 20 18 17 17 17 19 19 17 17 17 17 18 16 16 17 18 19 17 16 16 16 18 20 17 22 26 24
5 5 6 7 7 8 7 7 7 6 6 5 6 10 12 10 9 11 16 17 18 13 15 16 19 18 20 19 19 19 19 16 16 15 14 15 21 18 18 17 17 19 16 21 21 26 26
4 4 5 6 7 7 8 7 7 5 5 5 10 15 12 9 9 13 17 16 17 13 15 17 17 18 18 20 19 20 19 17 15 16 15 16 17 21 19 20 20 21 21 20 19 19 22
3 4 4 5 5 7 8 8 7 5 5 8 13 18 11 9 16 17 16 16 13 15 14 15 14 16 17 18 19 19 19 17 16 16 18 17 19 23 21 20 19 19 19 19 22 23 22
3 3 4 4 5 6 6 7 7 6 7 11 17 17 12 12 17 17 17 15 15 16 16 16 16 15 16 18 19 18 17 17 16 16 18 18 20 25 23 22 21 21 20 20 21 21 23
2 3 3 4 5 5 6 6 6 6 7 11 15 18 16 17 16 16 17 17 18 15 15 14 16 15 17 18 18 19 19 17 16 16 14 14 19 19 21 20 21 22 21 20 21 22 22
3 3 3 4 4 5 5 5 6 6 7 9 14 16 16 19 18 17 15 16 17 18 15 14 16 15 17 19 18 18 19 19 17 16 17 17 20 21 20 20 20 20 21 20 22 20 24
2 3 3 4 4 5 5 5 5 7 7 12 15 16 15 15 15 16 15 17 17 17 16 17 17 15 15 17 17 18 18 18 18 18 18 17 19 19 20 20 21 22 20 20 20 20 20
1 2 4 4 4 4 5 5 5 6 8 14 15 14 13 14 16 17 16 16 16 15 16 14 14 16 16 15 13 13 13 14 16 17 17 17 18 18 20 19 19 21 20 20 20 20 19
2 2 3 4 4 4 5 5 5 6 7 10 12 13 15 16 15 16 15 14 15 14 16 15 14 15 14 12 12 13 15 15 15 15 15 17 17 17 19 21 22 18 18 15 17 16 16
2 2 2 3 4 4 4 5 6 5 7 9 9 11 14 16 15 15 15 15 14 13 16 16 14 12 11 14 16 17 17 17 17 16 16 15 16 18 19 20 18 17 18 17 17 17 14
3 2 2 2 3 4 4 4 5 5 6 7 9 9 13 15 16 14 15 15 15 16 16 16 15 11 13 15 16 18 20 18 19 19 17 16 15 16 18 20 24 17 16 14 14 19 13
3 3 3 3 3 4 3 4 4 5 4 6 8 7 11 14 14 13 15 15 14 14 15 16 16 15 15 15 16 17 17 16 19 20 20 18 17 18 17 19 19 15 16 14 19 17 13
3 3 3 3 3 3 4 4 4 4 4 5 7 6 10 13 13 13 13 14 14 14 15 15 15 15 15 16 15 15 15 16 17 18 18 18 18 19 17 18 20 14 16 16 13 14 14
2 3 3 3 4 3 3 3 3 4 4 4 7 5 6 12 13 13 12 11 11 11 13 14 14 15 14 14 14 14 15 16 16 19 15 17 15 17 15 16 14 14 14 14 14 13 13